Weather reports worldwide

Advertisment
Bozeman, mt, United States of America (2072079): temperature & dewpoint: 14.02.2020 20:00:00 - 20.02.2020 20:00:00 (MST)Bozeman, mt, United States of America (2072079): wind speed: 14.02.2020 20:00:00 - 20.02.2020 20:00:00 (MST)Bozeman, mt, United States of America (2072079): wind direction: 14.02.2020 20:00:00 - 20.02.2020 20:00:00 (MST)Bozeman, mt, United States of America (2072079): reduced air pressure: 14.02.2020 20:00:00 - 20.02.2020 20:00:00 (MST)Bozeman, mt, United States of America (2072079): visibility: 14.02.2020 20:00:00 - 20.02.2020 20:00:00 (MST)Bozeman, mt, United States of America (2072079): precipitation: 14.02.2020 20:00:00 - 20.02.2020 20:00:00 (MST)
Date & Time tt [°C] td [°C] ff [km/h] ff [kn] dd ppp [hPa] vv [km] rr [mm]
20.02.2020 20:00:00 - - - - - - - -
20.02.2020 19:00:00 -8,9 -14,4 5 3 NE 1034,2 16 -
20.02.2020 18:00:00 -9,4 -15,0 8 4 E 1034,2 16 -
20.02.2020 17:00:00 -5,0 -15,0 8 4 S 1034,0 16 -
20.02.2020 16:00:00 -5,6 -13,9 8 4 E 1034,4 16 -
20.02.2020 15:00:00 -4,4 -14,4 0 0 N 1034,0 16 -
20.02.2020 14:00:00 -6,1 -13,3 5 3 ENE 1035,3 16 -
20.02.2020 13:00:00 -6,7 -13,9 8 4 NNE 1036,4 16 -
20.02.2020 12:00:00 -7,8 -15,6 0 0 N 1037,5 16 -
20.02.2020 11:00:00 -10,6 -16,7 0 0 N 1039,1 16 -
20.02.2020 10:00:00 -13,9 -18,9 0 0 N 1040,2 16 -
20.02.2020 09:00:00 -17,2 -20,6 0 0 N 1040,0 16 -
20.02.2020 08:00:00 -18,3 -21,7 0 0 N 1040,0 16 -
20.02.2020 07:00:00 -18,3 -21,7 8 4 SSE 1039,8 16 -
20.02.2020 06:00:00 -18,9 -21,7 0 0 N 1039,0 16 -
20.02.2020 05:00:00 -19,4 -21,7 0 0 N 1038,5 16 -
20.02.2020 04:00:00 -20,0 -22,2 8 4 SSE 1038,4 16 -
20.02.2020 03:00:00 -17,2 -19,4 0 0 N 1037,8 16 -
20.02.2020 02:00:00 -17,8 -20,0 0 0 N 1037,9 16 -
20.02.2020 01:00:00 -16,1 -18,9 13 7 SSE 1037,8 16 -
20.02.2020 00:00:00 -13,9 -17,8 9 5 S 1037,2 16 -
19.02.2020 23:00:00 -15,6 -19,4 9 5 SE 1037,6 16 -
19.02.2020 22:00:00 -15,0 -17,8 8 4 SE 1037,8 16 -
19.02.2020 21:00:00 -11,7 -16,1 8 4 S 1037,0 16 -
19.02.2020 20:00:00 -12,8 -17,2 11 6 SSE 1036,8 16 -
19.02.2020 19:00:00 -12,8 -16,1 13 7 SE 1036,2 16 -
19.02.2020 18:00:00 -8,3 -12,2 8 4 ESE 1034,9 16 -
19.02.2020 17:00:00 -6,7 -11,7 5 3 E 1034,6 16 -
19.02.2020 16:00:00 -5,6 -10,6 5 3 E 1034,4 16 -
19.02.2020 15:00:00 -5,6 -10,6 0 0 N 1034,4 16 -
19.02.2020 14:00:00 -5,0 -10,6 8 4 N 1035,2 16 -
19.02.2020 13:00:00 -6,1 -12,8 9 5 NNE 1035,7 16 -
19.02.2020 12:00:00 -6,7 -13,3 5 3 ENE 1036,3 16 -
19.02.2020 11:00:00 -7,2 -11,7 8 4 N 1036,1 16 -
19.02.2020 10:00:00 -9,4 -14,4 5 3 S 1036,3 16 -
19.02.2020 09:00:00 -10,0 -14,4 11 6 S 1035,6 16 -
19.02.2020 08:00:00 -10,0 -13,3 5 3 S 1034,6 16 -
19.02.2020 07:00:00 -8,9 -11,1 5 3 SSW 1033,8 16 -
19.02.2020 06:00:00 -9,4 -12,2 9 5 S 1033,6 16 -
19.02.2020 05:00:00 -10,0 -11,7 8 4 SE 1033,1 16 0,0
19.02.2020 04:00:00 -10,6 -12,2 0 0 N 1032,7 15 0,0
19.02.2020 03:00:00 -10,6 -11,7 0 0 N 1032,4 16 -
19.02.2020 02:00:00 -11,1 -12,2 8 4 SSE 1032,5 16 0,0
19.02.2020 01:00:00 -11,7 -12,2 9 5 SE 1031,6 6 0,0
19.02.2020 00:00:00 -11,1 -12,8 5 3 ENE 1031,5 16 -
18.02.2020 23:00:00 -8,3 -9,4 5 3 SSE 1031,3 16 -
18.02.2020 22:00:00 -9,4 -10,6 0 0 N 1031,5 16 0,0
18.02.2020 21:00:00 -8,3 -9,4 0 0 N 1031,3 10 0,0
18.02.2020 20:00:00 -6,7 -8,3 9 5 S 1030,3 16 0,0
18.02.2020 19:00:00 -5,6 -7,8 8 4 S 1030,1 10 0,0
18.02.2020 18:00:00 -5,6 -7,8 8 4 E 1029,6 3,2 0,0
18.02.2020 17:00:00 -4,4 -9,4 13 7 NNE 1028,5 16 0,0
18.02.2020 16:00:00 -4,4 -8,3 22 12 N 1027,8 8 0,0
18.02.2020 15:00:00 -3,3 -11,7 13 7 SE 1027,1 16 -
18.02.2020 14:00:00 -3,3 -11,1 11 6 ESE 1027,6 16 -
18.02.2020 13:00:00 -2,2 -12,2 8 4 ENE 1028,0 16 -
18.02.2020 12:00:00 -2,2 -12,8 0 0 N 1029,3 16 -
18.02.2020 11:00:00 -6,7 -12,2 5 3 ESE 1030,3 16 -
18.02.2020 10:00:00 -8,3 -11,1 5 3 SE 1030,5 16 -
18.02.2020 09:00:00 -10,6 -12,8 0 0 N 1030,6 16 -
18.02.2020 08:00:00 -10,6 -12,2 0 0 N 1029,8 16 -
18.02.2020 07:00:00 -11,1 -12,8 0 0 N 1029,1 16 -
18.02.2020 06:00:00 -12,2 -13,3 5 3 SSE 1029,4 16 -
18.02.2020 05:00:00 -10,6 -12,8 9 5 SE 1029,2 16 -
18.02.2020 04:00:00 -9,4 -11,7 0 0 N 1028,7 16 -
18.02.2020 03:00:00 -10,0 -11,7 0 0 N 1028,4 16 -
18.02.2020 02:00:00 - - - - - - - -
18.02.2020 01:00:00 -8,9 -11,7 9 5 SSE 1027,6 16 -
18.02.2020 00:00:00 -11,1 -12,8 9 5 SSE 1028,0 16 -
17.02.2020 23:00:00 -10,6 -12,2 5 3 NNE 1027,3 16 -
17.02.2020 22:00:00 -10,0 -10,6 8 4 ESE 1027,0 16 -
17.02.2020 21:00:00 -8,3 -8,9 0 0 N 1026,3 16 -
17.02.2020 20:00:00 -6,1 -6,1 8 4 SE 1025,7 16 -
17.02.2020 19:00:00 -5,0 -5,6 9 5 SSE 1024,4 16 0,0
17.02.2020 18:00:00 -3,9 -5,6 9 5 E 1024,0 2,0 0,0
17.02.2020 17:00:00 -3,9 -5,0 11 6 NW 1023,5 4,0 0,0
17.02.2020 16:00:00 -2,2 -9,4 9 5 ENE 1021,6 16 -
17.02.2020 15:00:00 -0,6 -8,9 5 3 NE 1021,3 16 -
17.02.2020 14:00:00 -0,6 -8,3 9 5 ENE 1021,4 16 -
17.02.2020 13:00:00 0,0 -8,9 0 0 N 1021,2 16 -
17.02.2020 12:00:00 -2,2 -7,2 13 7 ENE 1022,1 16 -
17.02.2020 11:00:00 -3,3 -7,2 15 8 ENE 1022,1 16 0,0
17.02.2020 10:00:00 -3,9 -8,9 16 9 NNW 1021,8 10 0,0
17.02.2020 09:00:00 -5,6 -10,6 0 0 N 1021,3 16 -
17.02.2020 08:00:00 -6,7 -11,1 8 4 ESE 1021,2 16 -
17.02.2020 07:00:00 -3,9 -11,7 5 3 WSW 1020,1 16 -
17.02.2020 06:00:00 -6,7 -11,7 9 5 SE 1020,0 16 -
17.02.2020 05:00:00 -6,1 -10,0 8 4 SSW 1019,6 16 -
17.02.2020 04:00:00 -5,0 -8,9 11 6 S 1019,2 16 -
17.02.2020 03:00:00 -6,1 -10,0 5 3 SSE 1018,6 16 -
17.02.2020 02:00:00 -6,1 -10,0 0 0 N 1018,2 16 -
17.02.2020 01:00:00 -5,0 -8,9 5 3 SW 1017,6 16 -
17.02.2020 00:00:00 -5,6 -8,9 8 4 SSE 1017,2 16 -
16.02.2020 23:00:00 -5,0 -6,7 11 6 S 1016,9 16 -
16.02.2020 22:00:00 -3,9 -5,6 0 0 N 1016,5 16 -
16.02.2020 21:00:00 -3,9 -6,1 0 0 N 1016,2 16 -
16.02.2020 20:00:00 -3,9 -6,1 0 0 N 1015,7 16 -
16.02.2020 19:00:00 -3,3 -4,4 11 6 ESE 1014,7 16 -
16.02.2020 18:00:00 -1,1 -3,9 8 4 S 1013,4 16 -
16.02.2020 17:00:00 -0,6 -3,3 9 5 N 1012,4 16 0,0
16.02.2020 16:00:00 0,0 -2,2 21 11 N 1011,7 4,8 0,0
16.02.2020 15:00:00 3,9 -2,2 11 6 N 1009,1 16 0,0
16.02.2020 14:00:00 3,3 -3,9 9 5 NNE 1009,2 16 -
16.02.2020 13:00:00 2,2 -4,4 0 0 N 1009,7 16 -
16.02.2020 12:00:00 0,6 -3,3 0 0 N 1011,2 16 -
16.02.2020 11:00:00 0,0 -3,9 0 0 N 1011,8 16 -
16.02.2020 10:00:00 -1,1 -3,9 0 0 N 1012,1 16 -
16.02.2020 09:00:00 -2,8 -3,9 5 3 ESE 1012,6 15 -
16.02.2020 08:00:00 -3,3 -3,9 5 3 SSW 1012,3 15 -
16.02.2020 07:00:00 -3,3 -3,9 0 0 N 1012,0 16 -
16.02.2020 06:00:00 -2,8 -3,3 5 3 SSW 1012,1 16 -
16.02.2020 05:00:00 -1,7 -3,9 0 0 N 1011,9 16 -
16.02.2020 04:00:00 -2,2 -3,3 0 0 N 1012,4 16 -
16.02.2020 03:00:00 -1,7 -2,8 16 9 ENE 1012,8 16 0,0
16.02.2020 02:00:00 -1,7 -2,8 22 12 ENE 1013,3 2,8 0,0
16.02.2020 01:00:00 -0,6 -6,7 8 4 N 1014,0 16 0,0
16.02.2020 00:00:00 -0,6 -6,7 8 4 NNW 1013,6 16 -
15.02.2020 23:00:00 -1,1 -6,7 0 0 N 1014,3 16 -
15.02.2020 22:00:00 -1,7 -6,7 5 3 - 1015,6 16 -
15.02.2020 21:00:00 -1,1 -6,7 9 5 SE 1016,7 16 -
15.02.2020 20:00:00 -0,6 -6,7 0 0 N 1017,3 16 -
15.02.2020 19:00:00 1,1 -7,2 9 5 SW 1016,6 16 -
15.02.2020 18:00:00 1,7 -7,8 9 5 SW 1016,3 16 -
15.02.2020 17:00:00 1,7 -7,2 18 10 SW 1015,7 16 -
15.02.2020 16:00:00 2,2 -7,8 26 14 SW 1014,9 16 -
15.02.2020 15:00:00 2,2 -7,8 35 19 SW 1015,0 16 -
15.02.2020 14:00:00 2,2 -8,9 28 15 SW 1016,1 16 -
15.02.2020 13:00:00 1,7 -8,9 9 5 S 1017,7 16 -
15.02.2020 12:00:00 0,6 -9,4 5 3 - 1019,2 16 -
15.02.2020 11:00:00 0,0 -9,4 0 0 N 1019,9 16 -
15.02.2020 10:00:00 -2,8 -8,9 11 6 NE 1019,9 16 -
15.02.2020 09:00:00 -4,4 -10,0 13 7 SE 1020,0 16 -
15.02.2020 08:00:00 -3,9 -10,6 11 6 ESE 1019,9 16 -
15.02.2020 07:00:00 -3,9 -10,6 8 4 ESE 1019,5 16 -
15.02.2020 06:00:00 -2,2 -11,7 11 6 WSW 1019,1 16 -
15.02.2020 05:00:00 -2,2 -11,7 13 7 SW 1018,5 16 -
15.02.2020 04:00:00 -1,7 -11,1 21 11 SW 1018,0 16 -
15.02.2020 03:00:00 -2,2 -11,1 0 0 N 1018,7 16 -
15.02.2020 02:00:00 -3,3 -11,1 9 5 NNW 1018,8 16 -
15.02.2020 01:00:00 -6,1 -11,1 9 5 - 1019,5 16 -
15.02.2020 00:00:00 -6,7 -11,1 8 4 ESE 1020,0 16 -
14.02.2020 23:00:00 -10,6 -13,9 8 4 - 1021,1 10 -
14.02.2020 22:00:00 -6,1 -11,7 5 3 SE 1019,6 16 -
14.02.2020 21:00:00 -5,0 -11,7 11 6 W 1018,5 16 -
14.02.2020 20:00:00 -3,9 -11,1 15 8 WNW 1017,8 16 -

tt = temperature
td = dewpoint
ff = wind speed
dd = wind direction
ppp = reduced air pressure
vv = visibility
rr = precipitation

Next stations